Location: Fundy National Park
(45.6138°N, 65.0316°W)
Time: 11:44:05
(UTC-04:00)

BlueWalker 3 - Pass Details

Date: 02 December 2022
Orbit: 499 x 517 km, 53.2° (Epoch: 01 February)

Event Time Altitude Azimuth Distance (km) Brightness Sun altitude
Rises 18:23:49 0° 292° (WNW) 2,627 6.5 -18.0°
Reaches altitude 10° 18:26:17 10° 305° (NW) 1,736 5.2 -18.4°
Maximum altitude 18:29:39 26° 4° (N) 1,023 3.3 -18.9°
Enters shadow 18:29:58 26° 12° (NNE) 1,031 3.3 -19.0°
